{"data":{"norad_id":51630,"epoch":"2026-05-25T03:36:37.603008Z","epoch_age_seconds":72253,"freshness":"FRESH","line1":"1 51630U 22012J   26145.15043522  .00000481  00000+0  13412-2 0  9997","line2":"2 51630  87.8857  40.8523 0001204  75.9316 284.1945 13.10376028206327","mean_motion":13.10376028,"eccentricity":0.0001204,"inclination_deg":87.8857,"raan_deg":40.8523,"arg_perigee_deg":75.9316,"mean_anomaly_deg":284.1945,"bstar":0.0013412,"rev_number":20632,"period_min":109.89212021818,"perigee_km":1220.7897144946,"apogee_km":1222.6197563845,"semimajor_km":7599.8417354395,"source":"CELESTRAK","updated_at":"2026-05-25T13:38:22.577574Z"}}